Location: Belmont-sur-Lausanne
(46.5333°N, 6.7000°E)
Time: 17:14:27
(UTC+00:00)

Daily predictions for brighter satellites

Satellite Brightness Start Highest point End
(mag) Time Altitude Azimuth Time Altitude Azimuth Time Altitude Azimuth
USA 234 4.3 19:55:31 10° E 20:01:38 43° NNE 20:07:43 10° NW
Meteor 2-10 Rocket 3.7 20:02:36 10° N 20:07:35 53° ENE 20:12:28 10° SSE
Okean 1 Rocket 3.1 20:03:44 10° N 20:08:15 82° E 20:12:43 10° S
Cosmos 407 Rocket 4.1 20:04:19 10° N 20:09:18 44° ENE 20:14:13 10° SE
APEX 4.1 20:03:34 10° SSW 20:09:33 66° ESE 20:14:35 10° NE
SL-14 R/B 3.2 20:06:31 10° S 20:10:21 81° E 20:14:16 10° N
S3M 4.1 20:04:49 10° S 20:10:54 60° E 20:16:57 10° NNE
Cosmos 1455 Rocket 4.0 20:09:22 10° N 20:13:21 33° ENE 20:17:17 10° SE
SL-16 R/B 4.2 20:08:21 10° WSW 20:13:31 35° NW 20:18:44 10° NNE
USA 245 4.2 20:08:49 10° SSE 20:13:49 50° ENE 20:17:56 10° N
Cosmos 1626 4.0 20:10:51 10° SW 20:14:11 33° WNW 20:17:31 10° N
MetOp-B 4.2 20:11:11 10° SSE 20:16:30 76° ENE 20:21:52 10° NNW
SPOT 5 3.6 20:13:15 10° SE 20:17:20 35° ENE 20:21:20 10° N
Meteor 2-5 Rocket 4.4 20:13:00 10° SSE 20:17:56 35° E 20:22:54 10° NNE
SPOT 1/Viking Rocket 3.8 20:15:54 10° S 20:21:01 74° WSW 20:26:12 10° NNW
Cosmos 1025 Rocket 3.9 20:20:51 10° SSE 20:24:38 32° E 20:28:27 10° NNE
Cosmos 1300 2.7 20:21:05 10° N 20:24:54 89° E 20:28:41 10° S
ERS-1 Rocket 3.6 20:24:42 10° SE 20:29:26 43° ENE 20:34:12 10° N
Cosmos 1140 Rocket 3.5 20:27:46 10° NNW 20:33:00 74° ENE 20:37:57 11° SSE
Cosmos 1953 3.4 20:31:54 10° NNW 20:35:39 43° W 20:39:23 10° SSW
Cosmos 1943 3.5 20:31:16 10° SSW 20:36:56 74° WNW 20:42:37 10° NNE
Cosmos 1023 Rocket 4.5 20:32:04 10° NNW 20:37:19 83° ENE 20:42:11 12° SSE
Cosmos 1745 Rocket 4.2 20:33:37 10° NNW 20:39:45 76° W 20:45:53 10° S
Cosmos 1603 3.9 20:35:12 10° SSW 20:40:54 78° WNW 20:46:40 10° NNE
CZ-2C R/B 4.4 20:37:34 10° NNE 20:41:52 36° E 20:45:46 12° SSE
Lacrosse 5 3.2 20:37:44 10° NW 20:42:28 36° NNE 20:47:11 10° E
Cosmos 1975 Rocket 3.1 20:40:50 10° S 20:45:15 65° E 20:49:40 10° NNE
Helios 1A Rocket 3.0 20:43:49 13° SSE 20:47:20 66° ENE 20:51:24 10° N
H-2A R/B 3.9 20:43:42 10° N 20:47:38 34° WNW 20:51:36 10° SW
Ariane Rocket 3.8 20:43:44 10° S 20:48:40 49° W 20:53:37 10° NNW
CARTOSAT-1 4.0 20:45:02 10° S 20:49:17 60° W 20:53:34 10° NNW
Resurs 01 Rocket 3.4 20:49:26 10° SSW 20:53:16 28° W 20:57:07 10° NW
Lacrosse 4 Rocket 3.2 20:53:19 10° WSW 20:57:08 35° NW 21:00:55 10° NNE
Tiangong 2.0 20:55:59 10° SW 20:58:46 28° S 21:00:12 20° SE
DELTA 2 R/B (1) 4.5 20:56:21 10° WSW 21:01:16 32° SSW 21:04:45 17° SE
Cosmos 1544 Rocket 3.7 21:00:21 10° N 21:04:38 58° ENE 21:07:38 19° SSE
FALCON 9 DEB 3.1 21:02:51 10° WSW 21:06:06 77° NNW 21:09:22 10° ENE
Terra 1.9 21:02:52 16° SSE 21:06:36 73° ENE 21:11:22 10° N
SL-8 R/B 3.9 21:03:23 10° W 21:08:12 77° N 21:13:03 10° ENE
USA 267 3.2 21:03:25 10° NE 21:09:58 73° SE 21:16:30 10° SW
Meteor 1-24 Rocket 3.5 21:06:33 10° S 21:11:50 84° E 21:17:14 10° NNE
Cosmos 1455 2.3 21:08:39 10° N 21:12:25 61° E 21:14:42 22° SSE
Cosmos 2315 Rocket 4.1 21:06:38 10° S 21:12:59 83° W 21:19:21 10° N
Cosmos 2369 Rocket 4.3 21:09:37 10° NW 21:13:31 20° W 21:17:25 10° SW
Cosmos 1697 Rocket 4.5 21:11:31 10° N 21:15:51 22° NE 21:20:09 10° E
Cosmos 1371 Rocket 4.0 21:12:35 10° SSW 21:17:48 84° ESE 21:23:06 10° NNE
Spot 2 Rocket 3.9 21:15:27 14° S 21:19:49 60° WSW 21:24:53 10° NNW
ARIANE 5 R/B 2.6 21:23:37 21° SSE 21:26:34 86° ENE 21:31:04 10° NNW
NOSS 2-1 (D) 4.3 21:23:26 10° NNW 21:27:49 59° NE 21:32:17 18° SE
Lacrosse 5 rocket 1.4 21:25:23 10° NW 21:29:15 70° NE 21:31:47 22° ESE
Cosmos 2084 3.3 21:26:52 15° SSW 21:29:47 49° SE 21:33:32 10° NE
Cosmos 2074 Rocket 4.0 21:31:33 10° N 21:37:52 73° E 21:42:02 22° SSE
Cosmos 1624 Rocket 4.3 21:34:23 10° SSW 21:39:38 70° WNW 21:44:51 10° NNE
ATLAS 2AS CENTAUR R/B 2.7 21:33:02 10° NW 21:40:14 85° NE 21:44:51 22° SE
Cosmos 1656 4.0 21:38:06 10° NNW 21:43:31 57° ENE 21:46:54 23° SE
GP-B 4.4 21:40:19 10° NNE 21:44:03 26° E 21:45:39 21° ESE
USA 234 3.3 21:38:51 16° ESE 21:44:15 86° NNE 21:50:51 10° NW
Cosmos 1833 Rocket 3.7 21:44:37 23° SE 21:46:30 28° ESE 21:51:11 10° NE
SPOT 5 4.4 21:52:00 11° SSW 21:55:29 26° W 21:59:11 10° NW
Cosmos 2154 Rocket 4.0 21:50:57 10° N 21:57:13 72° E 22:00:52 26° SSE
Nadezhda 1 Rocket 4.0 21:54:38 25° SSE 21:58:17 63° E 22:04:18 10° NNE
Cosmos 1271 Rocket 3.8 21:55:26 10° NNW 21:59:10 40° W 22:01:16 22° SSW
Cosmos 2056 Rocket 4.4 21:54:13 10° SW 21:59:25 50° WNW 22:04:42 10° NNE
Cosmos 2082 Rocket 3.9 21:59:42 15° ESE 22:00:48 15° E 22:04:00 10° ENE
Cosmos 1741 Rocket 4.2 21:58:58 10° NNW 22:04:17 66° ENE 22:07:02 28° SE
Cosmos 1610 Rocket 4.5 21:58:56 10° N 22:05:09 74° E 22:08:40 27° SSE
Cosmos 1536 Rocket 4.3 22:13:48 20° SW 22:16:35 48° WNW 22:20:48 10° N
Cosmos 1295 Rocket 4.5 22:10:58 10° N 22:17:18 87° WSW 22:20:45 28° S
Lacrosse 5 1.8 22:20:42 10° NW 22:25:48 72° SW 22:27:56 35° SSE
Cosmos 1606 Rocket 3.4 22:21:38 10° N 22:25:58 89° ENE 22:27:26 41° S
NOSS 2-1 (E) 4.3 22:21:44 10° NW 22:26:27 63° SW 22:29:25 31° SSE
H-2A R/B 4.2 22:22:34 10° NNE 22:26:29 37° E 22:27:16 34° ESE
COSMOS 2406 4.0 22:25:00 29° SE 22:26:44 35° ESE 22:31:54 10° NE
Cosmos 724 4.4 22:24:53 10° SW 22:30:41 73° NW 22:36:30 10° NNE
Tiangong 3.8 22:32:25 10° WSW 22:32:27 10° WSW 22:32:27 10° WSW
TSX-5 4.3 22:33:04 26° SW 22:35:34 78° WNW 22:41:05 10° NNE
SL-8 Rocket 4.3 22:30:13 10° N 22:36:24 57° ENE 22:39:30 29° SE
Cosmos 1850 Rocket 4.1 22:31:47 10° NNW 22:36:58 65° WSW 22:39:02 36° S
Cosmos 2369 4.5 22:32:11 10° NNW 22:37:42 46° NE 22:41:14 21° ESE
Cosmos 1328 3.8 22:37:12 44° SSW 22:38:24 83° W 22:42:26 10° N
Meteor 1-21 Rocket 4.4 22:35:49 25° SSW 22:39:04 69° WNW 22:44:43 10° N
Cosmos 2228 3.8 22:35:39 10° NNW 22:39:39 41° W 22:41:10 29° SW
Cosmos 2218 Rocket 4.5 22:33:44 10° N 22:40:00 52° ENE 22:43:17 28° SE
Cosmos 2341 Rocket 4.1 22:35:36 10° N 22:41:58 75° E 22:45:04 32° SSE
Cosmos 1408 2.7 22:43:33 51° ESE 22:43:44 52° E 22:47:06 10° NNE
Terra 4.2 22:42:20 10° WSW 22:44:53 14° W 22:47:25 10° NW
Cosmos 1825 3.4 22:46:55 26° E 22:47:11 27° E 22:50:22 10° NNE
ALOS 2 2.7 22:46:37 42° SE 22:48:00 70° ENE 22:52:24 10° N
Cosmos 2366 rocket 4.3 22:43:25 10° N 22:49:40 61° ENE 22:52:47 30° SSE
SL-8 R/B 3.8 22:46:08 10° WNW 22:50:58 76° N 22:55:49 10° E
Cosmos 1726 Rocket 3.7 22:48:06 10° NNW 22:52:23 63° W 22:53:36 43° SSW
USA 267 4.2 22:46:34 10° NE 22:52:49 50° NNW 22:59:03 10° W
Cosmos 1980 Rocket 2.7 22:50:26 10° NNW 22:56:03 55° ENE 22:59:14 25° SE
RESURS DK-1 2.4 22:54:13 10° NW 22:58:19 62° WSW 22:59:03 51° SSW
Cosmos 1331 Rocket 4.1 22:57:22 29° SSW 23:00:07 74° WNW 23:05:28 10° NNE
Cosmos 1697 Rocket 2.6 22:54:49 10° NNW 23:00:28 77° WSW 23:02:42 38° SSE
Cosmos 1452 Rocket 4.5 22:57:19 15° SW 23:01:23 44° WNW 23:06:26 10° N
Spot 4 4.3 23:04:25 36° SSW 23:05:58 51° W 23:10:38 10° NNW
Cosmos 1892 2.5 23:06:34 65° S 23:07:04 88° E 23:10:50 10° N
Lacrosse 5 rocket 3.1 23:05:04 10° W 23:07:17 18° WSW 23:07:17 18° WSW
ADEOS Rocket 3.4 23:05:35 32° SSE 23:09:12 87° WSW 23:16:47 10° NNW
ERS-2 2.3 23:05:46 10° NNE 23:09:17 52° ESE 23:09:26 51° ESE
USA 276 2.7 23:10:15 46° NE 23:10:15 46° NE 23:12:29 10° ENE
In-Cosmos 22 Rocket 4.2 23:08:21 38° S 23:10:32 69° E 23:16:04 10° NNE
Cosmos 2084 Rocket 4.4 23:07:18 10° NNW 23:11:01 40° NE 23:13:11 22° ESE
Cosmos 2058 Rocket 3.2 23:11:17 10° NNW 23:15:38 62° W 23:16:43 45° SSW
Cosmos 1602 Rocket 4.3 23:15:24 34° ESE 23:16:16 38° E 23:20:17 10° NNE
Cosmos 2181 Rocket 3.9 23:15:17 35° S 23:18:05 90° S 23:24:19 10° N
Cosmos 1959 Rocket 4.4 23:12:35 10° N 23:18:44 87° W 23:21:25 36° S
GP-B 4.4 23:17:24 10° NNW 23:21:22 32° W 23:23:05 24° WSW
Cosmos 1302 Rocket 3.9 23:21:10 40° SSW 23:23:08 88° ESE 23:28:22 10° NNE
Cosmos 192 4.3 23:21:56 40° SSW 23:23:43 82° WNW 23:28:39 10° NNE
Cosmos 2278 4.2 23:18:26 10° NNW 23:24:03 55° ENE 23:27:31 23° SE
Cosmos 1892 Rocket 4.5 23:22:22 28° WSW 23:24:04 41° WNW 23:28:16 10° N
Cosmos 2322 Rocket 4.3 23:20:24 10° N 23:24:52 23° NE 23:29:19 10° E
USA 234 4.1 23:26:12 28° SSW 23:27:44 31° SW 23:33:26 10° WNW
Cosmos 864 Rocket 4.5 23:22:29 10° NNW 23:28:38 74° W 23:31:19 36° S
Cosmos 1833 Rocket 3.4 23:26:16 19° SW 23:30:08 50° WNW 23:35:37 10° NNE
ATLAS 2AS CENTAUR R/B 4.1 23:25:15 10° WNW 23:30:12 21° WSW 23:32:16 18° SW
BREEZE-M DEB (TANK) 4.2 23:36:51 10° WNW 23:40:31 77° NNE 23:56:25 10° ESE
Okean 1-7 Rocket 3.7 23:39:49 45° SW 23:41:01 67° W 23:45:28 10° N
Cosmos 1626 Rocket 3.5 23:42:03 50° SSW 23:43:06 74° W 23:47:27 10° N
Cosmos 2082 Rocket 2.2 23:41:32 35° SSW 23:44:04 86° WNW 23:49:50 10° NNE
Cosmos 1821 Rocket 4.0 23:41:39 10° N 23:47:59 81° E 23:50:56 34° SSE
Meteor 1-27 4.4 23:43:52 10° NNW 23:49:20 58° W 23:51:21 37° SSW
Cosmos 1869 3.6 23:46:44 10° NNW 23:50:29 50° W 23:50:55 47° WSW
ATLAS 5 CENTAUR R/B 2.5 23:51:04 26° ESE 23:51:04 26° ESE 23:54:09 10° ENE
Cosmos 1825 Rocket 4.3 23:53:55 34° SE 23:55:00 41° E 23:59:05 10° NNE
